Location: Haliburton Scout Reserve
(45.0900°N, 78.3200°W)
Time: 18:06:23
(UTC-04:00)

DOVE 4 - Visible Passes

Search period start: 31 March 2023 00:00
Search period end: 10 April 2023 00:00
Orbit: 586 x 791 km, 97.8° (Epoch: 31 March)

Date Brightness Start Highest point End Pass type
(mag) Time Alt. Az. Time Alt. Az. Time Alt. Az.
31 Mar ? 00:02:56 10° NNE 00:03:29 13° NNE 00:03:29 13° NNE visible
31 Mar ? 01:42:05 10° NNW 01:42:06 10° NNW 01:42:06 10° NNW visible
01 Apr ? 00:41:34 10° N 00:42:28 15° N 00:42:28 15° N visible
01 Apr ? 23:42:30 10° NNE 23:42:50 12° NNE 23:42:50 12° NNE visible
02 Apr ? 01:20:45 10° NNW 01:21:26 13° NNW 01:21:26 13° NNW visible
03 Apr ? 00:20:52 10° N 00:21:48 16° N 00:21:48 16° N visible
04 Apr ? 00:59:43 10° N 01:00:45 15° NNW 01:00:45 15° NNW visible
05 Apr ? 00:00:16 10° NNE 00:01:06 15° NNE 00:01:06 15° NNE visible
05 Apr ? 01:39:25 10° NNW 01:39:42 11° NNW 01:39:42 11° NNW visible
06 Apr ? 00:38:51 10° N 00:40:02 17° N 00:40:02 17° N visible
06 Apr ? 23:39:48 10° NNE 23:40:22 13° NNE 23:40:22 13° NNE visible
07 Apr ? 01:18:00 10° NNW 01:18:58 14° NNW 01:18:58 14° NNW visible
08 Apr ? 00:18:05 10° N 00:19:17 18° N 00:19:17 18° N visible
08 Apr ? 23:19:29 10° NE 23:19:36 11° NE 23:19:36 11° NE visible
09 Apr ? 00:56:54 10° N 00:58:12 17° NNW 00:58:12 17° NNW visible
